Location: Forli
(44.2227°N, 12.0407°E)
Time: 18:51:39
(UTC+01:00)

ISS - Pass Details

Date: 16 February 2026
Orbit: 416 x 427 km, 51.6° (Epoch: 6 March)

Event Time Altitude Azimuth Distance (km) Brightness Sun altitude
Exits shadow 06:23:41 12° 265° (W) 1,381 -1.8 -9.0°
Maximum altitude 06:26:37 44° 337° (NNW) 592 -3.2 -8.4°
Drops below altitude 10° 06:29:51 10° 51° (NE) 1,494 -0.3 -7.9°
Sets 06:32:01 0° 58° (ENE) 2,359 0.9 -7.5°
